Location: ??????
(36.0418°N, 43.6351°E)
Time: 04:45:51
(UTC+00:00)

Lacrosse 5 - Pass Details

Date: 07 March 2021
Orbit: 718 x 721 km, 57.0° (Epoch: 02 April)

Event Time Altitude Azimuth Distance (km) Brightness Sun altitude
Exits shadow 02:42:07 - 317° (NW) 2,971 4.6 -10.0°
Reaches altitude 10° 02:44:07 10° 315° (NW) 2,202 4.0 -9.6°
Maximum altitude 02:49:09 71° 232° (SW) 757 1.8 -8.6°
Drops below altitude 10° 02:54:11 10° 149° (SSE) 2,191 4.8 -7.6°
Sets 02:56:33 0° 147° (SSE) 3,108 5.7 -7.1°
